Location: Hlohovi?ky
(49.8934°N, 13.6739°E)
Time: 23:56:20
(UTC+00:00)

Meteor 1-11 Rocket - Pass Details

Date: 19 May 2025
Orbit: 830 x 915 km, 81.2° (Epoch: 22 June)

Event Time Altitude Azimuth Distance (km) Brightness Sun altitude
Rises 20:59:42 0° 350° (N) 3,390 8.3 -15.1°
Reaches altitude 10° 21:02:11 10° 355° (N) 2,449 7.2 -15.3°
Maximum altitude 21:07:36 55° 73° (ENE) 998 4.0 -15.7°
Enters shadow 21:10:45 25° 142° (SE) 1,640 4.6 -15.9°
